Location: Natural Bridges National Monument
(37.6093°N, 109.9767°W)
Time: 19:40:48
(UTC-06:00)

USA 32 - Visible Passes

Search period start: 05 May 2016 00:00
Search period end: 15 May 2016 00:00
Orbit: 777 x 784 km, 85.0° (Epoch: 31 March)

Date Brightness Start Highest point End Pass type
(mag) Time Alt. Az. Time Alt. Az. Time Alt. Az.
05 May 4.2 04:31:20 10° N 04:36:37 76° E 04:41:52 10° S visible
06 May 5.2 03:58:49 10° N 04:03:48 41° E 04:08:44 10° SSE visible
06 May 5.4 05:40:37 10° NW 05:44:23 20° W 05:48:08 10° SW visible
07 May 6.1 03:26:42 10° NNE 03:30:51 23° ENE 03:34:58 10° SE visible
07 May 4.7 05:07:05 10° NNW 05:11:51 36° W 05:16:17 12° SSW visible
08 May 6.7 02:55:29 10° NE 02:57:47 13° ENE 03:00:05 10° E visible
08 May 4.0 04:34:00 10° N 04:39:13 67° W 04:43:03 18° S visible
09 May 4.3 04:01:14 10° N 04:06:29 68° E 04:09:54 22° SSE visible
09 May 5.9 05:44:43 10° WNW 05:46:45 12° W 05:48:46 10° WSW visible
10 May 5.3 03:28:47 10° NNE 03:33:38 37° E 03:36:48 19° SE visible
10 May 5.3 05:10:17 10° NNW 05:14:18 23° W 05:17:17 14° SW visible
11 May 6.2 02:56:46 10° NNE 03:00:40 21° ENE 03:03:44 13° ESE visible
11 May 4.5 04:36:52 10° NNW 04:41:46 41° W 04:44:14 25° SW visible
12 May 6.7 02:26:01 10° NE 02:27:34 11° ENE 02:29:09 10° E visible
12 May 3.9 04:03:51 10° N 04:09:07 75° W 04:11:13 37° S visible
13 May 4.4 03:31:08 10° N 03:36:21 60° E 03:38:14 37° SE visible
13 May 5.8 05:14:05 10° NW 05:16:41 14° W 05:18:44 11° WSW visible
14 May 5.4 02:58:45 10° NNE 03:03:29 33° E 03:05:17 26° ESE visible
14 May 5.2 04:39:58 10° NNW 04:44:14 25° W 04:45:46 22° WSW visible
